This is the latest recevied weather packets stored in our database for station/object K1BWE-1. If no packets are shown the sender has not sent any weather packets the latest 10 day(s).
| Time | Temp. | Humidity | Pressure | Rain* | Wind** | Luminosity | Snow |
|---|---|---|---|---|---|---|---|
| 1777755344 | 28.89° C | 21% | 1015.2 hPa | 0 mm | - | 927 W/m² | - |
| 1777755042 | 28.33° C | 20% | 1015.4 hPa | 0 mm | - | 619 W/m² | - |
| 1777754133 | 28.33° C | 23% | 1015.5 hPa | 0 mm | - | 249 W/m² | - |
| 1777753830 | 28.33° C | 19% | 1015.5 hPa | 0 mm | - | 240 W/m² | - |
| 1777753526 | 29.44° C | 18% | 1015.6 hPa | 0 mm | - | 356 W/m² | - |
| 1777753225 | 30.56° C | 18% | 1015.6 hPa | 0 mm | - | 891 W/m² | - |
| 1777752920 | 30° C | 20% | 1015.9 hPa | 0 mm | - | 990 W/m² | - |
| 1777752617 | 27.78° C | 21% | 1015.9 hPa | 0 mm | - | 512 W/m² | - |
| 1777752313 | 27.78° C | 20% | 1016 hPa | 0 mm | - | 278 W/m² | - |
| 1777752011 | 27.78° C | 19% | 1016.1 hPa | 0 mm | - | 278 W/m² | - |
| 1777751100 | 27.78° C | 20% | 1016 hPa | 0 mm | - | 291 W/m² | - |
| 1777750184 | 28.89° C | 19% | 1015.9 hPa | 0 mm | - | 982 W/m² | - |
| 1777749881 | 28.33° C | 20% | 1016.1 hPa | 0 mm | - | 710 W/m² | - |
| 1777749578 | 28.89° C | 20% | 1016.1 hPa | 0 mm | - | 307 W/m² | - |
| 1777749275 | 28.33° C | 20% | 1016.3 hPa | 0 mm | - | 906 W/m² | - |
| 1777748973 | 28.33° C | 20% | 1016.2 hPa | 0 mm | - | 886 W/m² | - |
| 1777748670 | 28.89° C | 20% | 1016.3 hPa | 0 mm | - | 706 W/m² | - |
| 1777748367 | 28.89° C | 20% | 1016.4 hPa | 0 mm | - | 869 W/m² | - |
| 1777748062 | 28.89° C | 21% | 1016.5 hPa | 0 mm | - | 668 W/m² | - |
| 1777747455 | 29.44° C | 19% | 1016.5 hPa | 0 mm | - | 843 W/m² | - |
| 1777747151 | 28.89° C | 20% | 1016.8 hPa | 0 mm | - | 847 W/m² | - |
| 1777746848 | 28.89° C | 19% | 1016.7 hPa | 0 mm | - | 842 W/m² | - |
| 1777746543 | 28.89° C | 18% | 1016.8 hPa | 0 mm | - | 815 W/m² | - |
| 1777746239 | 28.89° C | 20% | 1016.6 hPa | 0 mm | - | 781 W/m² | - |
| 1777745935 | 28.89° C | 18% | 1016.7 hPa | 0 mm | - | 795 W/m² | - |
* Rain latest hour (hover to see other rain measurements)
** Current wind speed in m/s (hover to see current wind gust speed)